Location: Pasadena, ca
(34.1243°N, 118.1037°W)
Time: 04:36:18
(UTC-07:00)

Vanguard 2 Rocket - Visible Passes

Search period start: 23 April 2018 00:00
Search period end: 03 May 2018 00:00
Orbit: 553 x 3328 km, 32.9° (Epoch: 22 April)

Date Brightness Start Highest point End Pass type
(mag) Time Alt. Az. Time Alt. Az. Time Alt. Az.
23 Apr 10.4 01:22:21 16° ESE 01:22:21 16° ESE 01:29:08 10° E visible
23 Apr 9.4 03:28:08 37° S 03:34:22 50° SE 03:53:10 10° ENE visible
23 Apr 9.7 05:34:15 10° WSW 05:51:49 80° SSE 06:12:03 10° E visible
24 Apr 9.5 02:31:47 36° SSE 02:33:41 37° SE 02:50:04 10° E visible
24 Apr 9.5 04:37:34 23° SW 04:49:41 72° SSE 05:10:07 10° E visible
25 Apr 10.0 01:35:23 25° ESE 01:35:23 25° ESE 01:46:09 10° E visible
25 Apr 9.2 03:41:10 39° SSW 03:48:05 62° SSE 04:07:45 10° ENE visible
26 Apr 10.5 00:38:58 11° ESE 00:38:58 11° ESE 00:40:24 10° E visible
26 Apr 9.1 02:44:45 46° SSE 02:47:09 49° SE 03:04:56 10° ENE visible
26 Apr 9.5 04:50:32 18° WSW 05:03:54 81° SSE 05:24:35 10° E visible
27 Apr 9.5 01:48:18 35° SE 01:48:18 35° SE 02:01:39 10° E visible
27 Apr 9.2 03:54:05 35° SW 04:02:05 72° SSE 04:22:13 10° E visible
28 Apr 10.1 00:51:51 19° ESE 00:51:51 19° ESE 00:57:40 10° E visible
28 Apr 8.8 02:57:37 52° SSW 03:00:53 61° SSE 03:19:30 10° ENE visible
28 Apr 9.5 05:03:24 13° W 05:18:18 85° S 05:39:05 10° E visible
29 Apr 9.1 02:01:09 47° SE 02:01:09 47° SE 02:16:30 10° ENE visible
29 Apr 9.2 04:06:55 29° WSW 04:16:20 81° SSE 04:36:40 10° E visible
30 Apr 9.7 01:04:39 28° ESE 01:04:39 28° ESE 01:13:14 10° E visible
30 Apr 8.7 03:10:26 50° SW 03:14:54 72° SSE 03:33:57 10° E visible
30 Apr 9.6 05:17:08 10° W 05:32:47 87° S 05:53:35 10° E visible
01 May 10.3 00:08:09 12° E 00:08:09 12° E 00:09:22 10° E visible
01 May 8.6 02:13:56 60° SSE 02:14:08 60° SSE 02:31:04 10° ENE visible
01 May 9.2 04:19:42 21° W 04:30:44 85° S 04:51:09 10° E visible
02 May 9.2 01:17:26 38° ESE 01:17:26 38° ESE 01:28:06 10° E visible
02 May 8.8 03:23:12 41° WSW 03:29:11 81° SSE 03:48:24 10° E visible
02 May 9.6 05:31:39 10° W 05:47:15 84° S 06:08:00 10° ESE visible
